| time (UTC) | temp C | wind direction | speed KPH | gust KPH | rain 1hr cm | rain 24hr cm | rain mn cm | humidity % | barometer mb |
| 20260504174528 | 20 | 169 | 3.2 | 14.5 | 6.20 | 12.57 | 12.57 | 37 | 1010.8 |
| 20260504173030 | 20 | 275 | 3.2 | 20.9 | 6.20 | 12.57 | 12.57 | 37 | 1011.1 |
| 20260504171626 | 20 | 130 | 4.8 | 17.7 | 6.20 | 12.57 | 12.57 | 37 | 1011.3 |
| 20260504081558 | 6 | 274 | 0.0 | 0.0 | 0.00 | 0.00 | 0.00 | 45 | 1013.9 |
| 20260504080114 | 6 | 274 | 0.0 | 1.6 | 0.00 | 0.00 | 0.00 | 46 | 1013.8 |
| 20260504044540 | 6 | 274 | 0.0 | 0.0 | 0.00 | 0.00 | 0.00 | 54 | 1013.2 |
| 20260504043037 | 7 | 274 | 0.0 | 0.0 | 0.00 | 0.00 | 0.00 | 54 | 1013.2 |
| 20260504041535 | 7 | 274 | 0.0 | 0.0 | 0.00 | 0.00 | 0.00 | 55 | 1012.9 |
| 20260504040056 | 7 | 274 | 0.0 | 0.0 | 0.00 | 0.00 | 0.00 | 56 | 1012.7 |
| 20260504034531 | 7 | 274 | 0.0 | 0.0 | 0.00 | 0.00 | 0.00 | 56 | 1012.7 |
| 20260504033034 | 7 | 274 | 0.0 | 0.0 | 0.00 | 0.00 | 0.00 | 56 | 1012.8 |
| 20260504031533 | 7 | 274 | 0.0 | 1.6 | 0.00 | 0.00 | 0.00 | 56 | 1012.7 |
| 20260504030030 | 8 | 274 | 0.0 | 0.0 | 0.00 | 0.00 | 0.00 | 54 | 1012.6 |
| 20260504024529 | 8 | 274 | 0.0 | 0.0 | 0.00 | 0.00 | 0.00 | 54 | 1012.6 |
| 20260504023029 | 8 | 274 | 0.0 | 0.0 | 0.00 | 0.00 | 0.00 | 55 | 1012.7 |
| 20260504021529 | 8 | 274 | 0.0 | 1.6 | 0.00 | 0.00 | 0.00 | 52 | 1012.7 |
| 20260504020030 | 9 | 274 | 0.0 | 0.0 | 0.00 | 0.00 | 0.00 | 51 | 1012.7 |
| 20260504014528 | 9 | 274 | 0.0 | 1.6 | 0.00 | 0.00 | 0.00 | 50 | 1012.7 |
| 20260504013027 | 10 | 274 | 0.0 | 0.0 | 0.00 | 0.00 | 0.00 | 49 | 1012.5 |
| 20260504011525 | 10 | 274 | 0.0 | 0.0 | 0.00 | 0.00 | 0.00 | 47 | 1012.4 |
| 20260504010028 | 11 | 274 | 0.0 | 0.0 | 0.00 | 0.00 | 0.00 | 46 | 1012.1 |
| 20260504004539 | 11 | 274 | 0.0 | 0.0 | 0.00 | 0.00 | 0.00 | 44 | 1012.0 |
| 20260504003025 | 12 | 274 | 0.0 | 0.0 | 0.00 | 0.00 | 0.00 | 40 | 1011.8 |
| 20260504001524 | 12 | 274 | 0.0 | 3.2 | 0.00 | 0.00 | 0.00 | 38 | 1011.6 |
| 20260504000024 | 13 | 292 | 0.0 | 4.8 | 0.00 | 0.00 | 0.00 | 36 | 1011.3 |
| 20260503234523 | 13 | 241 | 0.0 | 1.6 | 0.00 | 0.00 | 0.00 | 36 | 1011.1 |
| 20260503233023 | 13 | 261 | 0.0 | 0.0 | 0.00 | 0.00 | 0.00 | 34 | 1011.0 |
| 20260503231521 | 14 | 264 | 0.0 | 3.2 | 0.00 | 0.00 | 0.00 | 33 | 1010.8 |
| 20260503230021 | 14 | 6 | 0.0 | 4.8 | 0.00 | 0.00 | 0.00 | 32 | 1010.9 |
| 20260503224520 | 15 | 326 | 1.6 | 8.0 | 0.00 | 0.00 | 0.00 | 30 | 1010.7 |
| 20260503223019 | 15 | 44 | 0.0 | 6.4 | 0.00 | 0.00 | 0.00 | 30 | 1010.6 |
| 20260503221516 | 15 | 270 | 0.0 | 8.0 | 0.00 | 0.00 | 0.00 | 31 | 1010.6 |
| 20260503220015 | 15 | 305 | 0.0 | 6.4 | 0.00 | 0.00 | 0.00 | 30 | 1010.5 |
| 20260503214515 | 15 | 24 | 0.0 | 11.3 | 0.00 | 0.00 | 0.00 | 31 | 1010.6 |
| 20260503213018 | 14 | 333 | 0.0 | 4.8 | 0.00 | 0.00 | 0.00 | 29 | 1010.6 |
| 20260503211513 | 14 | 253 | 0.0 | 9.7 | 0.00 | 0.00 | 0.00 | 29 | 1010.6 |
| 20260503210012 | 14 | 311 | 0.0 | 9.7 | 0.00 | 0.00 | 0.00 | 30 | 1010.5 |
| 20260503204519 | 14 | 328 | 3.2 | 14.5 | 0.00 | 0.00 | 0.00 | 30 | 1010.4 |
| 20260503203014 | 15 | 259 | 1.6 | 9.7 | 0.00 | 0.00 | 0.00 | 30 | 1010.7 |
| 20260503201507 | 14 | 323 | 3.2 | 16.1 | 0.00 | 0.00 | 0.00 | 32 | 1010.7 |
| 20260503200009 | 15 | 261 | 3.2 | 16.1 | 0.00 | 0.00 | 0.00 | 32 | 1010.9 |
| 20260503194505 | 14 | 214 | 1.6 | 9.7 | 0.00 | 0.00 | 0.00 | 33 | 1011.1 |
| 20260503193002 | 13 | 11 | 1.6 | 11.3 | 0.00 | 0.00 | 0.00 | 33 | 1011.0 |
| 20260503191502 | 13 | 352 | 1.6 | 8.0 | 0.00 | 0.00 | 0.00 | 33 | 1011.2 |
| 20260503190106 | 13 | 321 | 0.0 | 6.4 | 0.00 | 0.00 | 0.00 | 34 | 1011.2 |
| 20260503184559 | 13 | 298 | 1.6 | 12.9 | 0.00 | 0.00 | 0.00 | 35 | 1011.4 |
| 20260503183115 | 13 | 250 | 1.6 | 30.6 | 0.00 | 0.00 | 0.00 | 35 | 1011.5 |
| 20260503183003 | 13 | 319 | 3.2 | 30.6 | 0.00 | 0.00 | 0.00 | 35 | 1011.4 |
| 20260503181619 | 12 | 231 | 1.6 | 12.9 | 0.00 | 0.00 | 0.00 | 38 | 1011.4 |
| 20260503180051 | 12 | 279 | 4.8 | 19.3 | 0.00 | 0.00 | 0.00 | 39 | 1011.7 |